Time,TemperatureF,DewpointF,PressureIn,WindDirection,WindDirectionDegrees,WindSpeedMPH,WindSpeedGustMPH,Humidity,HourlyPrecipIn,Conditions,Clouds,dailyrainin,SoftwareType,DateUTC
2018-01-22 00:01:00,51.3,50.2,28.88,ESE,112,4.6,4.6,96,0.00,CLR,,0.00,WeatherDisplay:10.37,2018-01-22 05:01:00,
2018-01-22 00:06:00,51.1,50.0,28.86,SSE,158,0.0,0.0,96,0.00,CLR,,0.00,WeatherDisplay:10.37,2018-01-22 05:06:00,
2018-01-22 00:11:00,50.9,50.1,28.86,East,90,0.0,0.0,97,0.00,CLR,,0.00,WeatherDisplay:10.37,2018-01-22 05:11:00,
2018-01-22 00:21:00,50.7,49.9,28.86,ESE,112,4.7,4.7,97,0.00,CLR,,0.00,WeatherDisplay:10.37,2018-01-22 05:21:00,
2018-01-22 00:26:00,50.7,49.9,28.86,SE,135,2.3,2.3,97,0.00,CLR,,0.00,WeatherDisplay:10.37,2018-01-22 05:26:00,
2018-01-22 00:31:00,50.7,49.9,28.86,East,90,4.7,4.7,97,0.00,CLR,,0.00,WeatherDisplay:10.37,2018-01-22 05:31:00,
2018-01-22 00:36:00,50.7,49.9,28.86,SE,135,2.7,2.7,97,0.00,CLR,,0.00,WeatherDisplay:10.37,2018-01-22 05:36:00,
2018-01-22 00:56:00,50.9,49.2,28.86,ESE,112,3.5,3.5,94,0.00,CLR,,0.00,WeatherDisplay:10.37,2018-01-22 05:56:00,
2018-01-22 01:01:00,50.7,49.0,28.86,SSE,158,0.0,0.0,94,0.00,CLR,,0.00,WeatherDisplay:10.37,2018-01-22 06:01:00,
2018-01-22 01:06:00,50.7,49.0,28.85,ESE,112,2.3,2.3,94,0.00,CLR,,0.00,WeatherDisplay:10.37,2018-01-22 06:06:00,
2018-01-22 01:11:00,50.5,48.8,28.85,ESE,112,2.7,2.7,94,0.00,CLR,,0.00,WeatherDisplay:10.37,2018-01-22 06:11:00,
2018-01-22 01:16:00,50.5,48.8,28.84,ESE,112,2.3,2.3,94,0.00,CLR,,0.00,WeatherDisplay:10.37,2018-01-22 06:16:00,
2018-01-22 01:21:00,50.5,48.8,28.84,South,180,3.7,3.7,94,0.00,CLR,,0.00,WeatherDisplay:10.37,2018-01-22 06:21:00,
2018-01-22 01:26:00,50.4,48.7,28.84,ESE,112,2.7,2.7,94,0.00,CLR,,0.00,WeatherDisplay:10.37,2018-01-22 06:26:00,
2018-01-22 01:31:00,50.2,48.5,28.84,SSE,158,2.3,2.3,94,0.00,CLR,,0.00,WeatherDisplay:10.37,2018-01-22 06:31:00,
2018-01-22 01:36:00,50.0,48.3,28.84,SSE,158,3.5,3.5,94,0.00,CLR,,0.00,WeatherDisplay:10.37,2018-01-22 06:36:00,
2018-01-22 01:41:00,50.2,48.3,28.84,SSE,158,2.3,2.6,93,0.00,CLR,,0.00,WeatherDisplay:10.37,2018-01-22 06:41:00,
2018-01-22 01:46:00,50.0,48.1,28.84,SSE,158,3.5,3.5,93,0.00,CLR,,0.00,WeatherDisplay:10.37,2018-01-22 06:46:00,
2018-01-22 01:51:00,50.5,48.0,28.84,SW,225,3.5,3.5,91,0.00,CLR,,0.00,WeatherDisplay:10.37,2018-01-22 06:51:00,
2018-01-22 01:56:00,50.5,48.0,28.84,SE,135,2.7,2.7,91,0.00,CLR,,0.00,WeatherDisplay:10.37,2018-01-22 06:56:00,
2018-01-22 02:01:00,50.2,47.7,28.84,ESE,112,4.7,4.7,91,0.00,CLR,,0.00,WeatherDisplay:10.37,2018-01-22 07:01:00,
2018-01-22 02:16:00,49.8,47.3,28.84,South,180,2.3,2.3,91,0.00,CLR,,0.00,WeatherDisplay:10.37,2018-01-22 07:16:00,
2018-01-22 02:21:00,49.5,47.0,28.84,South,180,2.3,2.3,91,0.00,CLR,,0.00,WeatherDisplay:10.37,2018-01-22 07:21:00,
2018-01-22 02:36:00,49.5,47.0,28.83,SSE,158,2.7,2.7,91,0.00,CLR,,0.00,WeatherDisplay:10.37,2018-01-22 07:36:00,
2018-01-22 02:41:00,49.1,46.6,28.83,ESE,112,2.7,2.7,91,0.00,CLR,,0.00,WeatherDisplay:10.37,2018-01-22 07:41:00,
2018-01-22 02:51:00,48.6,46.4,28.83,East,90,2.7,2.7,92,0.00,CLR,,0.00,WeatherDisplay:10.37,2018-01-22 07:51:00,
2018-01-22 02:56:00,48.6,46.4,28.83,SE,135,3.2,3.2,92,0.00,CLR,,0.00,WeatherDisplay:10.37,2018-01-22 07:56:00,
2018-01-22 03:01:00,48.4,46.2,28.83,SE,135,0.0,0.0,92,0.00,CLR,,0.00,WeatherDisplay:10.37,2018-01-22 08:01:00,
2018-01-22 03:06:00,48.2,46.0,28.83,ESE,112,2.3,2.3,92,0.00,CLR,,0.00,WeatherDisplay:10.37,2018-01-22 08:06:00,
2018-01-22 03:11:00,48.0,45.8,28.83,ESE,112,2.3,2.3,92,0.00,CLR,,0.00,WeatherDisplay:10.37,2018-01-22 08:11:00,
2018-01-22 03:21:00,47.8,45.6,28.83,ESE,112,2.2,2.2,92,0.00,CLR,,0.00,WeatherDisplay:10.37,2018-01-22 08:21:00,
2018-01-22 03:26:00,47.8,45.6,28.83,ESE,112,2.7,2.7,92,0.00,CLR,,0.00,WeatherDisplay:10.37,2018-01-22 08:26:00,
2018-01-22 03:31:00,47.8,45.6,28.83,ESE,112,2.3,2.3,92,0.00,CLR,,0.00,WeatherDisplay:10.37,2018-01-22 08:31:00,
2018-01-22 03:47:00,48.2,46.0,28.82,SE,135,5.8,5.8,92,0.00,CLR,,0.00,WeatherDisplay:10.37,2018-01-22 08:47:00,
2018-01-22 03:52:00,48.9,46.1,28.82,SSE,158,3.5,3.5,90,0.00,CLR,,0.00,WeatherDisplay:10.37,2018-01-22 08:52:00,
2018-01-22 03:57:00,48.7,45.9,28.82,SE,135,2.7,2.7,90,0.00,CLR,,0.00,WeatherDisplay:10.37,2018-01-22 08:57:00,
2018-01-22 04:07:00,48.7,45.9,28.82,ESE,112,3.5,3.5,90,0.00,CLR,,0.00,WeatherDisplay:10.37,2018-01-22 09:07:00,
2018-01-22 04:12:00,48.7,45.9,28.82,ESE,112,3.5,3.5,90,0.00,CLR,,0.00,WeatherDisplay:10.37,2018-01-22 09:12:00,
2018-01-22 04:17:00,48.9,46.1,28.81,ESE,112,2.3,2.3,90,0.00,CLR,,0.00,WeatherDisplay:10.37,2018-01-22 09:17:00,
2018-01-22 04:22:00,48.9,46.1,28.81,ESE,112,2.3,2.3,90,0.00,CLR,,0.00,WeatherDisplay:10.37,2018-01-22 09:22:00,
2018-01-22 04:27:00,48.7,45.9,28.81,SE,135,3.2,3.2,90,0.00,CLR,,0.00,WeatherDisplay:10.37,2018-01-22 09:27:00,
2018-01-22 04:32:00,48.9,45.8,28.81,East,90,3.5,3.5,89,0.00,CLR,,0.00,WeatherDisplay:10.37,2018-01-22 09:32:00,
2018-01-22 04:37:00,48.9,45.8,28.81,SSE,158,4.6,4.6,89,0.00,CLR,,0.00,WeatherDisplay:10.37,2018-01-22 09:37:00,
2018-01-22 04:42:00,49.1,46.0,28.81,SSE,158,5.3,5.3,89,0.00,CLR,,0.00,WeatherDisplay:10.37,2018-01-22 09:42:00,
2018-01-22 04:47:00,49.5,46.1,28.81,ESE,112,4.7,4.7,88,0.00,CLR,,0.00,WeatherDisplay:10.37,2018-01-22 09:47:00,
2018-01-22 04:52:00,49.5,46.1,28.80,SSE,158,3.7,3.7,88,0.00,CLR,,0.00,WeatherDisplay:10.37,2018-01-22 09:52:00,
2018-01-22 04:57:00,50.0,46.3,28.80,SSE,158,5.8,5.8,87,0.00,CLR,,0.00,WeatherDisplay:10.37,2018-01-22 09:57:00,
2018-01-22 05:02:00,50.0,46.0,28.80,SE,135,2.3,2.3,86,0.00,CLR,,0.00,WeatherDisplay:10.37,2018-01-22 10:02:00,
2018-01-22 05:07:00,50.2,46.2,28.80,SE,135,3.2,3.2,86,0.00,CLR,,0.00,WeatherDisplay:10.37,2018-01-22 10:07:00,
2018-01-22 05:12:00,50.0,46.0,28.80,SSE,158,5.8,5.8,86,0.00,CLR,,0.00,WeatherDisplay:10.37,2018-01-22 10:12:00,
2018-01-22 05:17:00,50.2,46.2,28.80,SSE,158,4.6,4.6,86,0.00,CLR,,0.00,WeatherDisplay:10.37,2018-01-22 10:17:00,
2018-01-22 05:22:00,50.4,46.4,28.80,ESE,112,4.6,4.6,86,0.00,CLR,,0.00,WeatherDisplay:10.37,2018-01-22 10:22:00,
2018-01-22 05:27:00,50.4,46.4,28.80,ENE,68,5.8,5.8,86,0.00,CLR,,0.00,WeatherDisplay:10.37,2018-01-22 10:27:00,
2018-01-22 05:32:00,50.4,46.1,28.79,ENE,68,4.6,4.6,85,0.00,CLR,,0.00,WeatherDisplay:10.37,2018-01-22 10:32:00,
2018-01-22 05:37:00,50.4,46.1,28.79,SE,135,5.8,5.8,85,0.00,CLR,,0.00,WeatherDisplay:10.37,2018-01-22 10:37:00,
2018-01-22 05:42:00,50.4,46.1,28.79,SSE,158,4.6,4.6,85,0.00,CLR,,0.00,WeatherDisplay:10.37,2018-01-22 10:42:00,
2018-01-22 05:47:00,50.4,46.1,28.79,ENE,68,4.7,4.7,85,0.00,CLR,,0.00,WeatherDisplay:10.37,2018-01-22 10:47:00,
2018-01-22 05:52:00,50.4,46.1,28.79,ESE,112,3.7,3.7,85,0.00,CLR,,0.00,WeatherDisplay:10.37,2018-01-22 10:52:00,
2018-01-22 05:57:00,50.2,45.9,28.79,SSW,202,4.6,4.6,85,0.00,CLR,,0.00,WeatherDisplay:10.37,2018-01-22 10:57:00,
2018-01-22 06:07:00,50.4,46.1,28.78,ESE,112,5.8,5.8,85,0.00,CLR,,0.00,WeatherDisplay:10.37,2018-01-22 11:07:00,
2018-01-22 06:12:00,50.4,46.1,28.78,SE,135,3.5,3.5,85,0.00,CLR,,0.00,WeatherDisplay:10.37,2018-01-22 11:12:00,
2018-01-22 06:17:00,50.2,45.9,28.78,South,180,2.3,2.3,85,0.00,CLR,,0.00,WeatherDisplay:10.37,2018-01-22 11:17:00,
2018-01-22 06:22:00,50.2,45.9,28.78,ESE,112,2.3,2.3,85,0.00,CLR,,0.00,WeatherDisplay:10.37,2018-01-22 11:22:00,
2018-01-22 06:32:00,50.0,45.7,28.78,ESE,112,3.7,3.7,85,0.00,CLR,,0.00,WeatherDisplay:10.37,2018-01-22 11:32:00,
2018-01-22 06:37:00,50.0,45.7,28.78,South,180,6.9,6.9,85,0.00,CLR,,0.00,WeatherDisplay:10.37,2018-01-22 11:37:00,
2018-01-22 06:42:00,50.4,45.7,28.77,SE,135,5.8,5.8,84,0.00,CLR,,0.00,WeatherDisplay:10.37,2018-01-22 11:42:00,
2018-01-22 06:47:00,50.9,46.2,28.77,SSW,202,5.8,5.8,84,0.00,CLR,,0.00,WeatherDisplay:10.37,2018-01-22 11:47:00,
2018-01-22 06:52:00,50.7,46.0,28.76,SSE,158,8.1,8.1,84,0.00,CLR,,0.00,WeatherDisplay:10.37,2018-01-22 11:52:00,
2018-01-22 06:57:00,50.9,46.2,28.76,South,180,5.8,5.8,84,0.00,CLR,,0.00,WeatherDisplay:10.37,2018-01-22 11:57:00,
2018-01-22 07:02:00,50.9,45.9,28.76,ESE,112,4.7,4.7,83,0.00,CLR,,0.00,WeatherDisplay:10.37,2018-01-22 12:02:00,
2018-01-22 07:07:00,50.9,45.9,28.75,SSE,158,6.3,6.3,83,0.00,CLR,,0.00,WeatherDisplay:10.37,2018-01-22 12:07:00,
2018-01-22 07:12:00,50.9,45.9,28.75,SSE,158,5.8,5.8,83,0.00,CLR,,0.00,WeatherDisplay:10.37,2018-01-22 12:12:00,
2018-01-22 07:22:00,51.3,46.0,28.75,SSE,158,6.9,6.9,82,0.00,CLR,,0.00,WeatherDisplay:10.37,2018-01-22 12:22:00,
2018-01-22 07:27:00,51.3,46.0,28.76,ESE,112,2.7,2.7,82,0.00,CLR,,0.00,WeatherDisplay:10.37,2018-01-22 12:27:00,
2018-01-22 07:32:00,51.1,45.8,28.76,SE,135,3.5,3.5,82,0.00,CLR,,0.00,WeatherDisplay:10.37,2018-01-22 12:32:00,
2018-01-22 07:37:00,50.9,45.9,28.76,ESE,112,3.5,3.5,83,0.00,CLR,,0.00,WeatherDisplay:10.37,2018-01-22 12:37:00,
2018-01-22 07:47:00,50.7,45.7,28.76,SSE,158,5.8,5.8,83,0.00,CLR,,0.00,WeatherDisplay:10.37,2018-01-22 12:47:00,
2018-01-22 07:52:00,50.9,45.9,28.75,ESE,112,5.8,5.8,83,0.00,CLR,,0.00,WeatherDisplay:10.37,2018-01-22 12:52:00,
2018-01-22 07:57:00,50.9,45.9,28.75,South,180,5.8,5.8,83,0.00,CLR,,0.00,WeatherDisplay:10.37,2018-01-22 12:57:00,
2018-01-22 08:02:00,50.9,45.9,28.75,SSE,158,4.6,4.6,83,0.00,CLR,,0.00,WeatherDisplay:10.37,2018-01-22 13:02:00,
2018-01-22 08:12:00,50.9,45.9,28.75,South,180,4.7,4.7,83,0.00,CLR,,0.00,WeatherDisplay:10.37,2018-01-22 13:12:00,
2018-01-22 08:17:00,50.9,45.9,28.75,SSE,158,5.3,5.3,83,0.00,CLR,,0.00,WeatherDisplay:10.37,2018-01-22 13:17:00,
2018-01-22 08:22:00,51.1,46.1,28.75,East,90,5.8,5.8,83,0.00,CLR,,0.00,WeatherDisplay:10.37,2018-01-22 13:22:00,
2018-01-22 08:27:00,51.4,46.1,28.74,East,90,6.9,6.9,82,0.00,CLR,,0.00,WeatherDisplay:10.37,2018-01-22 13:27:00,
2018-01-22 08:32:00,51.8,46.5,28.74,SSW,202,4.6,5.3,82,0.00,CLR,,0.00,WeatherDisplay:10.37,2018-01-22 13:32:00,
2018-01-22 08:37:00,52.0,46.3,28.74,SSE,158,5.8,5.8,81,0.00,CLR,,0.00,WeatherDisplay:10.37,2018-01-22 13:37:00,
2018-01-22 08:42:00,52.0,46.3,28.75,SSE,158,6.9,6.9,81,0.00,CLR,,0.00,WeatherDisplay:10.37,2018-01-22 13:42:00,
2018-01-22 08:47:00,52.2,46.5,28.75,SSE,158,5.8,5.8,81,0.00,CLR,,0.00,WeatherDisplay:10.37,2018-01-22 13:47:00,
2018-01-22 08:57:00,52.5,46.5,28.75,SE,135,4.6,4.6,80,0.00,CLR,,0.00,WeatherDisplay:10.37,2018-01-22 13:57:00,
2018-01-22 09:12:00,52.9,46.6,28.75,SSE,158,4.6,4.6,79,0.00,CLR,,0.00,WeatherDisplay:10.37,2018-01-22 14:12:00,
2018-01-22 09:17:00,53.1,46.8,28.75,ENE,68,4.6,4.6,79,0.00,CLR,,0.00,WeatherDisplay:10.37,2018-01-22 14:17:00,
2018-01-22 09:27:00,53.8,46.8,28.75,SSW,202,11.9,11.9,77,0.00,CLR,,0.00,WeatherDisplay:10.37,2018-01-22 14:27:00,
2018-01-22 09:32:00,54.1,47.0,28.75,SSW,202,5.8,5.8,77,0.00,CLR,,0.00,WeatherDisplay:10.37,2018-01-22 14:32:00,
2018-01-22 09:37:00,54.5,47.1,28.75,ESE,112,5.8,5.8,76,0.00,CLR,,0.00,WeatherDisplay:10.37,2018-01-22 14:37:00,
2018-01-22 09:42:00,54.7,46.9,28.76,SSE,158,8.1,8.1,75,0.00,CLR,,0.00,WeatherDisplay:10.37,2018-01-22 14:42:00,
2018-01-22 09:47:00,54.9,47.1,28.76,SE,135,7.3,7.3,75,0.00,CLR,,0.00,WeatherDisplay:10.37,2018-01-22 14:47:00,
2018-01-22 09:52:00,55.0,47.2,28.75,SSE,158,6.9,6.9,75,0.00,CLR,,0.00,WeatherDisplay:10.37,2018-01-22 14:52:00,
2018-01-22 09:57:00,55.4,47.2,28.75,SSE,158,10.4,10.4,74,0.00,CLR,,0.00,WeatherDisplay:10.37,2018-01-22 14:57:00,
2018-01-22 10:02:00,55.6,47.4,28.75,South,180,6.9,6.9,74,0.00,CLR,,0.00,WeatherDisplay:10.37,2018-01-22 15:02:00,
2018-01-22 10:07:00,55.8,47.6,28.75,SSE,158,10.4,10.4,74,0.00,CLR,,0.00,WeatherDisplay:10.37,2018-01-22 15:07:00,
2018-01-22 10:12:00,55.9,47.4,28.75,SSW,202,8.1,8.1,73,0.00,CLR,,0.00,WeatherDisplay:10.37,2018-01-22 15:12:00,
2018-01-22 10:17:00,56.1,47.6,28.75,SSE,158,10.4,10.4,73,0.00,CLR,,0.00,WeatherDisplay:10.37,2018-01-22 15:17:00,
2018-01-22 10:22:00,56.5,47.6,28.75,SSE,158,8.1,8.1,72,0.00,CLR,,0.00,WeatherDisplay:10.37,2018-01-22 15:22:00,
2018-01-22 10:27:00,56.7,47.8,28.75,SSE,158,10.4,10.4,72,0.00,CLR,,0.00,WeatherDisplay:10.37,2018-01-22 15:27:00,
2018-01-22 10:32:00,56.7,47.8,28.74,SSW,202,8.1,8.1,72,0.00,CLR,,0.00,WeatherDisplay:10.37,2018-01-22 15:32:00,
2018-01-22 10:37:00,56.8,47.5,28.74,SE,135,14.0,14.0,71,0.00,CLR,,0.00,WeatherDisplay:10.37,2018-01-22 15:37:00,
2018-01-22 10:42:00,57.0,47.7,28.74,ENE,68,5.8,5.8,71,0.00,CLR,,0.00,WeatherDisplay:10.37,2018-01-22 15:42:00,
2018-01-22 10:47:00,57.6,48.3,28.74,SSE,158,8.1,8.1,71,0.00,CLR,,0.00,WeatherDisplay:10.37,2018-01-22 15:47:00,
2018-01-22 10:52:00,57.7,48.0,28.74,SSE,158,8.1,8.1,70,0.00,CLR,,0.00,WeatherDisplay:10.37,2018-01-22 15:52:00,
2018-01-22 10:57:00,58.1,48.4,28.74,South,180,10.4,10.4,70,0.00,CLR,,0.00,WeatherDisplay:10.37,2018-01-22 15:57:00,
2018-01-22 11:02:00,58.6,48.5,28.74,South,180,8.1,8.1,69,0.00,CLR,,0.00,WeatherDisplay:10.37,2018-01-22 16:02:00,
2018-01-22 11:07:00,59.4,48.8,28.74,SSE,158,5.8,5.8,68,0.00,CLR,,0.00,WeatherDisplay:10.37,2018-01-22 16:07:00,
2018-01-22 11:12:00,59.4,48.8,28.74,SSE,158,10.4,10.4,68,0.00,CLR,,0.00,WeatherDisplay:10.37,2018-01-22 16:12:00,
2018-01-22 11:17:00,59.7,48.7,28.73,ESE,112,6.9,6.9,67,0.00,CLR,,0.00,WeatherDisplay:10.37,2018-01-22 16:17:00,
2018-01-22 11:22:00,60.4,49.0,28.73,South,180,9.2,9.2,66,0.00,CLR,,0.00,WeatherDisplay:10.37,2018-01-22 16:22:00,
2018-01-22 11:27:00,60.6,48.8,28.72,South,180,11.5,11.5,65,0.00,CLR,,0.00,WeatherDisplay:10.37,2018-01-22 16:27:00,
2018-01-22 11:32:00,60.8,49.4,28.72,ESE,112,5.8,5.8,66,0.00,CLR,,0.00,WeatherDisplay:10.37,2018-01-22 16:32:00,
2018-01-22 11:37:00,61.3,49.4,28.72,SE,135,6.9,6.9,65,0.00,CLR,,0.00,WeatherDisplay:10.37,2018-01-22 16:37:00,
2018-01-22 11:42:00,61.9,49.2,28.72,SSE,158,11.5,11.5,63,0.00,CLR,,0.00,WeatherDisplay:10.37,2018-01-22 16:42:00,
2018-01-22 11:47:00,62.4,49.2,28.72,SSW,202,9.2,9.2,62,0.00,CLR,,0.00,WeatherDisplay:10.37,2018-01-22 16:47:00,
2018-01-22 11:52:00,62.8,49.1,28.71,SSE,158,11.5,11.5,61,0.00,CLR,,0.00,WeatherDisplay:10.37,2018-01-22 16:52:00,
2018-01-22 11:57:00,62.8,49.1,28.71,SSW,202,15.0,15.0,61,0.00,CLR,,0.00,WeatherDisplay:10.37,2018-01-22 16:57:00,
2018-01-22 12:02:00,62.4,48.8,28.71,SSW,202,9.2,9.2,61,0.00,CLR,,0.00,WeatherDisplay:10.37,2018-01-22 17:02:00,
2018-01-22 12:07:00,61.7,48.5,28.72,SSE,158,11.5,11.5,62,0.00,CLR,,0.00,WeatherDisplay:10.37,2018-01-22 17:07:00,
2018-01-22 12:12:00,61.5,48.4,28.72,West,270,9.2,9.2,62,0.00,CLR,,0.00,WeatherDisplay:10.37,2018-01-22 17:12:00,
2018-01-22 12:17:00,60.8,48.5,28.74,SW,225,8.1,8.1,64,0.00,CLR,,0.00,WeatherDisplay:10.37,2018-01-22 17:17:00,
2018-01-22 12:22:00,60.4,48.6,28.74,SSW,202,10.4,10.4,65,0.00,CLR,,0.00,WeatherDisplay:10.37,2018-01-22 17:22:00,
2018-01-22 12:27:00,59.7,48.7,28.74,West,270,9.2,9.2,67,0.00,CLR,,0.00,WeatherDisplay:10.37,2018-01-22 17:27:00,
2018-01-22 12:32:00,59.4,49.2,28.74,South,180,8.3,8.3,69,0.00,CLR,,0.00,WeatherDisplay:10.37,2018-01-22 17:32:00,
2018-01-22 12:37:00,59.2,49.4,28.74,SW,225,9.2,9.2,70,0.00,CLR,,0.00,WeatherDisplay:10.37,2018-01-22 17:37:00,
2018-01-22 12:42:00,59.2,49.4,28.73,SE,135,9.2,9.2,70,0.00,CLR,,0.00,WeatherDisplay:10.37,2018-01-22 17:42:00,
2018-01-22 12:47:00,59.5,49.3,28.73,South,180,11.5,11.5,69,0.00,CLR,,0.00,WeatherDisplay:10.37,2018-01-22 17:47:00,
2018-01-22 12:52:00,59.5,49.3,28.72,SSW,202,9.2,9.2,69,0.00,CLR,,0.00,WeatherDisplay:10.37,2018-01-22 17:52:00,
2018-01-22 12:57:00,59.4,49.2,28.72,WSW,248,4.6,4.6,69,0.00,CLR,,0.00,WeatherDisplay:10.37,2018-01-22 17:57:00,
2018-01-22 13:02:00,58.6,48.8,28.72,WSW,248,9.2,9.2,70,0.00,CLR,,0.00,WeatherDisplay:10.37,2018-01-22 18:02:00,
2018-01-22 13:07:00,58.5,48.7,28.71,South,180,8.1,8.1,70,0.00,CLR,,0.00,WeatherDisplay:10.37,2018-01-22 18:07:00,
2018-01-22 13:12:00,58.3,48.6,28.71,ENE,68,5.8,5.8,70,0.00,CLR,,0.00,WeatherDisplay:10.37,2018-01-22 18:12:00,
2018-01-22 13:17:00,58.1,48.4,28.70,SSW,202,11.5,11.5,70,0.00,CLR,,0.00,WeatherDisplay:10.37,2018-01-22 18:17:00,
2018-01-22 13:22:00,57.6,48.6,28.70,SW,225,10.4,10.4,72,0.00,CLR,,0.00,WeatherDisplay:10.37,2018-01-22 18:22:00,
2018-01-22 13:27:00,57.0,48.8,28.69,SW,225,9.2,9.2,74,0.00,CLR,,0.00,WeatherDisplay:10.37,2018-01-22 18:27:00,
2018-01-22 13:32:00,56.7,49.2,28.69,SW,225,17.6,17.6,76,0.00,CLR,,0.00,WeatherDisplay:10.37,2018-01-22 18:32:00,
2018-01-22 13:37:00,56.3,49.2,28.69,SSW,202,6.9,6.9,77,0.00,CLR,,0.00,WeatherDisplay:10.37,2018-01-22 18:37:00,
2018-01-22 13:42:00,55.9,49.1,28.68,SSW,202,9.2,9.2,78,0.00,CLR,,0.00,WeatherDisplay:10.37,2018-01-22 18:42:00,
2018-01-22 13:47:00,55.9,49.1,28.68,SSE,158,8.1,8.1,78,0.00,CLR,,0.00,WeatherDisplay:10.37,2018-01-22 18:47:00,
2018-01-22 13:52:00,55.8,49.0,28.67,SSW,202,10.4,10.4,78,0.00,CLR,,0.00,WeatherDisplay:10.37,2018-01-22 18:52:00,
2018-01-22 13:57:00,55.8,49.0,28.67,SSE,158,5.8,5.8,78,0.00,CLR,,0.00,WeatherDisplay:10.37,2018-01-22 18:57:00,
2018-01-22 14:02:00,55.2,49.5,28.67,SSE,158,10.4,10.4,81,0.00,CLR,,0.00,WeatherDisplay:10.37,2018-01-22 19:02:00,
2018-01-22 14:06:00,55.0,49.3,28.66,ESE,112,5.8,5.8,81,0.00,CLR,,0.00,WeatherDisplay:10.37,2018-01-22 19:06:00,
2018-01-22 14:11:00,55.0,48.9,28.66,SE,135,6.9,6.9,80,0.00,CLR,,0.00,WeatherDisplay:10.37,2018-01-22 19:11:00,
2018-01-22 14:16:00,54.9,49.2,28.65,South,180,6.9,6.9,81,0.00,CLR,,0.00,WeatherDisplay:10.37,2018-01-22 19:16:00,
2018-01-22 14:21:00,54.7,49.3,28.65,ESE,112,5.8,5.8,82,0.00,CLR,,0.00,WeatherDisplay:10.37,2018-01-22 19:21:00,
2018-01-22 14:26:00,54.3,49.2,28.65,SSE,158,6.9,7.2,83,0.00,CLR,,0.00,WeatherDisplay:10.37,2018-01-22 19:26:00,
2018-01-22 14:31:00,54.1,49.4,28.64,East,90,8.1,8.1,84,0.00,CLR,,0.01,WeatherDisplay:10.37,2018-01-22 19:31:00,
2018-01-22 14:36:00,54.1,49.4,28.64,SW,225,6.9,6.9,84,0.01,RA,,0.01,WeatherDisplay:10.37,2018-01-22 19:36:00,
2018-01-22 14:41:00,54.1,49.4,28.63,NE,45,8.1,8.1,84,0.01,RA,,0.01,WeatherDisplay:10.37,2018-01-22 19:41:00,
2018-01-22 14:46:00,54.0,49.6,28.63,SSE,158,9.4,9.4,85,0.01,,,0.01,WeatherDisplay:10.37,2018-01-22 19:46:00,
2018-01-22 14:51:00,53.8,49.4,28.63,South,180,5.8,5.8,85,0.01,,,0.01,WeatherDisplay:10.37,2018-01-22 19:51:00,
2018-01-22 14:56:00,53.8,49.1,28.63,SSE,158,7.3,7.3,84,0.01,,,0.01,WeatherDisplay:10.37,2018-01-22 19:56:00,
2018-01-22 15:01:00,54.0,49.0,28.63,SE,135,10.9,10.9,83,0.01,,,0.01,WeatherDisplay:10.37,2018-01-22 20:01:00,
2018-01-22 15:06:00,54.1,49.4,28.61,SSE,158,6.9,6.9,84,0.02,RA,,0.02,WeatherDisplay:10.37,2018-01-22 20:06:00,
2018-01-22 15:11:00,54.0,49.3,28.61,SSE,158,9.2,9.2,84,0.02,RA,,0.02,WeatherDisplay:10.37,2018-01-22 20:11:00,
2018-01-22 15:16:00,53.8,49.4,28.62,ESE,112,5.8,5.8,85,0.03,RA,,0.03,WeatherDisplay:10.37,2018-01-22 20:16:00,
2018-01-22 15:21:00,53.8,49.1,28.62,SSE,158,16.1,16.1,84,0.03,RA,,0.03,WeatherDisplay:10.37,2018-01-22 20:21:00,
2018-01-22 15:26:00,53.6,49.2,28.62,SSE,158,8.9,8.9,85,0.03,,,0.03,WeatherDisplay:10.37,2018-01-22 20:26:00,
2018-01-22 15:31:00,53.6,49.2,28.61,East,90,10.4,10.4,85,0.03,,,0.03,WeatherDisplay:10.37,2018-01-22 20:31:00,
2018-01-22 15:36:00,53.4,49.0,28.61,SE,135,12.7,12.7,85,0.03,RA,,0.04,WeatherDisplay:10.37,2018-01-22 20:36:00,
2018-01-22 15:41:00,53.2,49.1,28.60,ESE,112,6.9,6.9,86,0.03,RA,,0.04,WeatherDisplay:10.37,2018-01-22 20:41:00,
2018-01-22 15:46:00,53.1,49.3,28.60,SSW,202,5.8,5.8,87,0.03,,,0.04,WeatherDisplay:10.37,2018-01-22 20:46:00,
2018-01-22 15:51:00,53.1,49.3,28.60,South,180,6.9,6.9,87,0.03,,,0.04,WeatherDisplay:10.37,2018-01-22 20:51:00,
2018-01-22 15:56:00,53.1,49.3,28.60,South,180,10.4,10.4,87,0.03,,,0.04,WeatherDisplay:10.37,2018-01-22 20:56:00,
2018-01-22 16:01:00,53.1,49.3,28.60,East,90,8.9,8.9,87,0.03,,,0.04,WeatherDisplay:10.37,2018-01-22 21:01:00,
2018-01-22 16:06:00,53.2,49.1,28.60,South,180,6.3,6.3,86,0.02,,,0.04,WeatherDisplay:10.37,2018-01-22 21:06:00,
2018-01-22 16:11:00,53.2,49.1,28.60,SE,135,9.2,9.2,86,0.02,,,0.04,WeatherDisplay:10.37,2018-01-22 21:11:00,
2018-01-22 16:16:00,53.1,49.6,28.59,ESE,112,8.1,8.1,88,0.02,RA,,0.05,WeatherDisplay:10.37,2018-01-22 21:16:00,
2018-01-22 16:21:00,52.7,49.5,28.59,SSE,158,10.4,10.4,89,0.02,RA,,0.05,WeatherDisplay:10.37,2018-01-22 21:21:00,
2018-01-22 16:26:00,52.5,49.4,28.59,SSE,158,6.9,7.5,89,0.02,,,0.05,WeatherDisplay:10.37,2018-01-22 21:26:00,
2018-01-22 16:31:00,52.5,49.4,28.59,South,180,6.9,6.9,89,0.02,,,0.05,WeatherDisplay:10.37,2018-01-22 21:31:00,
2018-01-22 16:36:00,52.5,49.4,28.59,East,90,9.2,9.2,89,0.02,RA,,0.06,WeatherDisplay:10.37,2018-01-22 21:36:00,
2018-01-22 16:41:00,52.7,49.5,28.58,ESE,112,5.8,5.8,89,0.02,RA,,0.06,WeatherDisplay:10.37,2018-01-22 21:41:00,
2018-01-22 16:46:00,52.9,49.7,28.58,SE,135,10.4,10.4,89,0.02,,,0.06,WeatherDisplay:10.37,2018-01-22 21:46:00,
2018-01-22 16:51:00,52.9,49.7,28.58,ENE,68,8.1,8.1,89,0.02,,,0.06,WeatherDisplay:10.37,2018-01-22 21:51:00,
2018-01-22 16:56:00,52.9,49.7,28.58,SE,135,10.4,10.4,89,0.02,,,0.06,WeatherDisplay:10.37,2018-01-22 21:56:00,
2018-01-22 17:01:00,53.1,49.9,28.58,South,180,9.2,9.2,89,0.02,,,0.06,WeatherDisplay:10.37,2018-01-22 22:01:00,
2018-01-22 17:06:00,53.1,49.6,28.57,SSE,158,5.8,5.9,88,0.02,,,0.06,WeatherDisplay:10.37,2018-01-22 22:06:00,
2018-01-22 17:11:00,53.4,49.6,28.57,ESE,112,8.1,8.1,87,0.02,,,0.06,WeatherDisplay:10.37,2018-01-22 22:11:00,
2018-01-22 17:16:00,53.4,49.6,28.57,SSE,158,7.8,7.8,87,0.01,,,0.06,WeatherDisplay:10.37,2018-01-22 22:16:00,
2018-01-22 17:21:00,53.6,49.8,28.57,ESE,112,8.1,8.1,87,0.01,,,0.06,WeatherDisplay:10.37,2018-01-22 22:21:00,
2018-01-22 17:26:00,53.6,49.5,28.57,South,180,11.5,11.5,86,0.01,,,0.06,WeatherDisplay:10.37,2018-01-22 22:26:00,
2018-01-22 17:31:00,54.0,49.6,28.56,SSE,158,10.9,10.9,85,0.01,,,0.06,WeatherDisplay:10.37,2018-01-22 22:31:00,
2018-01-22 17:36:00,54.0,49.6,28.56,SSE,158,9.4,9.4,85,0.00,CLR,,0.06,WeatherDisplay:10.37,2018-01-22 22:36:00,
2018-01-22 17:41:00,54.0,49.6,28.55,ESE,112,10.4,10.4,85,0.00,CLR,,0.06,WeatherDisplay:10.37,2018-01-22 22:41:00,
2018-01-22 17:46:00,54.0,49.6,28.55,SE,135,10.4,10.4,85,0.00,CLR,,0.06,WeatherDisplay:10.37,2018-01-22 22:46:00,
2018-01-22 17:51:00,54.0,49.6,28.55,South,180,9.4,9.5,85,0.00,CLR,,0.06,WeatherDisplay:10.37,2018-01-22 22:51:00,
2018-01-22 17:56:00,53.6,49.2,28.54,SSE,158,9.2,9.2,85,0.00,CLR,,0.06,WeatherDisplay:10.37,2018-01-22 22:56:00,
2018-01-22 18:01:00,53.6,49.2,28.54,ESE,112,5.8,5.8,85,0.00,CLR,,0.06,WeatherDisplay:10.37,2018-01-22 23:01:00,
2018-01-22 18:06:00,53.6,49.2,28.55,SE,135,9.2,9.2,85,0.00,CLR,,0.06,WeatherDisplay:10.37,2018-01-22 23:06:00,
2018-01-22 18:11:00,53.8,49.4,28.55,East,90,11.5,11.5,85,0.00,CLR,,0.06,WeatherDisplay:10.37,2018-01-22 23:11:00,
2018-01-22 18:16:00,53.8,49.4,28.55,East,90,5.8,8.2,85,0.00,CLR,,0.06,WeatherDisplay:10.37,2018-01-22 23:16:00,
2018-01-22 18:21:00,54.0,49.6,28.55,South,180,10.4,10.4,85,0.00,CLR,,0.06,WeatherDisplay:10.37,2018-01-22 23:21:00,
2018-01-22 18:26:00,54.1,49.7,28.55,ESE,112,8.1,8.1,85,0.00,CLR,,0.06,WeatherDisplay:10.37,2018-01-22 23:26:00,
2018-01-22 18:31:00,54.1,49.7,28.55,SSE,158,10.4,10.4,85,0.00,CLR,,0.06,WeatherDisplay:10.37,2018-01-22 23:31:00,
2018-01-22 18:36:00,54.1,49.7,28.55,SSE,158,10.4,10.4,85,0.00,CLR,,0.06,WeatherDisplay:10.37,2018-01-22 23:36:00,
2018-01-22 18:41:00,54.1,49.7,28.54,ENE,68,9.2,9.2,85,0.00,CLR,,0.06,WeatherDisplay:10.37,2018-01-22 23:41:00,
2018-01-22 18:46:00,54.1,49.7,28.54,SSE,158,6.3,6.3,85,0.00,CLR,,0.06,WeatherDisplay:10.37,2018-01-22 23:46:00,
2018-01-22 18:51:00,54.1,49.7,28.54,SE,135,9.2,9.2,85,0.00,CLR,,0.06,WeatherDisplay:10.37,2018-01-22 23:51:00,
2018-01-22 18:56:00,54.1,49.7,28.53,SSE,158,5.8,5.8,85,0.00,CLR,,0.06,WeatherDisplay:10.37,2018-01-22 23:56:00,
2018-01-22 19:01:00,54.3,49.9,28.53,SSE,158,9.4,9.4,85,0.00,CLR,,0.06,WeatherDisplay:10.37,2018-01-23 00:01:00,
2018-01-22 19:06:00,54.5,50.1,28.53,SSW,202,9.2,9.2,85,0.00,CLR,,0.06,WeatherDisplay:10.37,2018-01-23 00:06:00,
2018-01-22 19:11:00,54.3,49.9,28.53,SSW,202,6.9,6.9,85,0.00,CLR,,0.06,WeatherDisplay:10.37,2018-01-23 00:11:00,
2018-01-22 19:16:00,54.5,50.1,28.52,NE,45,6.9,6.9,85,0.00,CLR,,0.06,WeatherDisplay:10.37,2018-01-23 00:16:00,
2018-01-22 19:21:00,54.7,50.3,28.52,SSE,158,9.2,9.2,85,0.00,CLR,,0.06,WeatherDisplay:10.37,2018-01-23 00:21:00,
2018-01-22 19:26:00,54.7,50.3,28.52,SSE,158,7.3,7.3,85,0.00,CLR,,0.06,WeatherDisplay:10.37,2018-01-23 00:26:00,
2018-01-22 19:31:00,55.0,50.6,28.51,SSW,202,6.9,6.9,85,0.00,CLR,,0.06,WeatherDisplay:10.37,2018-01-23 00:31:00,
2018-01-22 19:36:00,55.2,50.8,28.51,SE,135,8.9,8.9,85,0.00,CLR,,0.06,WeatherDisplay:10.37,2018-01-23 00:36:00,
2018-01-22 19:41:00,55.2,50.8,28.50,SSE,158,15.0,15.0,85,0.00,CLR,,0.06,WeatherDisplay:10.37,2018-01-23 00:41:00,
2018-01-22 19:46:00,55.6,50.8,28.50,SSE,158,12.7,12.7,84,0.00,CLR,,0.06,WeatherDisplay:10.37,2018-01-23 00:46:00,
2018-01-22 19:51:00,55.6,50.8,28.50,South,180,6.9,6.9,84,0.00,CLR,,0.06,WeatherDisplay:10.37,2018-01-23 00:51:00,
2018-01-22 19:56:00,55.6,50.8,28.50,East,90,9.2,9.2,84,0.00,CLR,,0.06,WeatherDisplay:10.37,2018-01-23 00:56:00,